Spokane Fairchild, WA
on Monday, December 31, 2012

Monday
Previous Day Next Day
Daily Summary
 ActualAverage (KGEG)Record (KGEG)
Temperature
Mean Temperature °F 27°F  
Max Temperature 24°F 32°F 52°F (1917)
Min Temperature 10°F 22°F -22°F (1978)
Degree Days
Heating Degree Days 48 38  
Month to date heating degree days 1167  
Since 1 July heating degree days 2834  
Cooling Degree Days 0 0  
Month to date cooling degree days 0  
Year to date cooling degree days 450  
Moisture
Dew Point 21°F   
Average Humidity 100    
Maximum Humidity 100    
Minimum Humidity 99    
Precipitation
Precipitation 0.00 in 0.06 in 0.59 in (1968)
Month to date precipitation 2.30  
Year to date precipitation 16.56  
Snow
Snow 0.00 in 0.50 in 7.50 in (1968)
Month to date snowfall 14.6  
Since 1 July snowfall 22.1  
Snow Depth in   
Wind
Wind Speed 3 mph   
Max Wind Speed 7 mph   
Max Gust Speed mph   
Visibility 9 miles   
Events Snow   

Key: T is trace of precipitation, MM is missing value
Source: NWS Daily Summary
Time(PST)TemperatureDew PointHumidity Pressure Visibility Wind DirectionWind SpeedGust SpeedPrecipitationEvents Conditions
12:06 AM 23.0°F 23.0°F 100% 30.25 in 10.0 miles WSW 6.9 mph - N/A   Overcast
12:21 AM 23.0°F 23.0°F 100% 30.25 in 10.0 miles SW 6.9 mph - N/A   Overcast
12:31 AM 23.0°F 23.0°F 100% 30.25 in 10.0 miles WSW 6.9 mph - N/A   Overcast
12:58 AM 22.8°F 22.8°F 100% 30.37 in 10.0 miles SW 5.8 mph - 0.00 in   Overcast
1:06 AM 23.0°F 23.0°F 100% 30.25 in 10.0 miles SW 5.8 mph - N/A   Overcast
1:21 AM 23.0°F 23.0°F 100% 30.25 in 10.0 miles SW 4.6 mph - N/A   Overcast
1:46 AM 23.0°F 23.0°F 100% 30.25 in 10.0 miles West 4.6 mph - N/A   Overcast
1:56 AM 23.0°F 23.0°F 100% 30.25 in 9.0 miles West 3.5 mph - N/A   Overcast
1:58 AM 22.6°F 22.6°F 100% 30.37 in 8.0 miles West 4.6 mph - 0.00 in   Overcast
2:33 AM 23.0°F 23.0°F 100% 30.26 in 10.0 miles West 4.6 mph - N/A   Overcast
2:58 AM 22.5°F 22.5°F 100% 30.37 in 10.0 miles West 4.6 mph - N/A   Overcast
3:08 AM 23.0°F 23.0°F 100% 30.26 in 10.0 miles West 4.6 mph - N/A   Overcast
3:23 AM 23.0°F 23.0°F 100% 30.26 in 10.0 miles West 6.9 mph - N/A   Overcast
3:28 AM 23.0°F 23.0°F 100% 30.26 in 10.0 miles West 6.9 mph - N/A   Overcast
3:58 AM 22.1°F 22.1°F 100% 30.36 in 10.0 miles West 4.6 mph - N/A   Overcast
4:58 AM 22.1°F 22.1°F 100% 30.36 in 10.0 miles West 4.6 mph - N/A   Overcast
5:23 AM 21.2°F 21.2°F 100% 30.25 in 10.0 miles West 2.3 mph - N/A   Overcast
5:58 AM 22.1°F 22.1°F 100% 30.36 in 10.0 miles South 1.2 mph - N/A   Overcast
6:58 AM 22.1°F 22.1°F 100% 30.36 in 10.0 miles Calm Calm - N/A   Overcast
7:58 AM 22.1°F 22.1°F 100% 30.36 in 10.0 miles North 2.3 mph - N/A   Overcast
8:48 AM 23.0°F 23.0°F 100% 30.26 in 10.0 miles NE 2.3 mph - N/A   Overcast
8:55 AM 23.0°F 23.0°F 100% 30.26 in 10.0 miles ENE 2.3 mph - N/A   Overcast
8:58 AM 22.5°F 22.5°F 100% 30.37 in 10.0 miles ENE 2.3 mph - 0.00 in   Overcast
9:05 AM 23.0°F 23.0°F 100% 30.26 in 10.0 miles NE 2.3 mph - N/A   Overcast
9:30 AM 23.0°F 23.0°F 100% 30.26 in 10.0 miles NNE 3.5 mph - N/A Snow Light Snow
9:58 AM 23.4°F 23.4°F 100% 30.38 in 10.0 miles North 3.5 mph - 0.00 in Snow Light Snow
10:05 AM 23.0°F 23.0°F 100% 30.27 in 10.0 miles NE 3.5 mph - N/A   Overcast
10:15 AM 23.0°F 23.0°F 100% 30.27 in 10.0 miles NE 3.5 mph - N/A   Overcast
10:20 AM 23.0°F 23.0°F 100% 30.27 in 10.0 miles Calm Calm - N/A   Overcast
10:23 AM 23.0°F 23.0°F 100% 30.27 in 10.0 miles ENE 1.2 mph - N/A Snow Light Snow
10:49 AM 23.0°F 23.0°F 100% 30.27 in 10.0 miles Calm Calm - N/A   Overcast
10:54 AM 23.0°F 23.0°F 100% 30.27 in 10.0 miles Calm Calm - N/A   Overcast
10:58 AM 23.2°F 23.2°F 100% 30.38 in 10.0 miles Calm Calm - 0.00 in   Overcast
11:23 AM 23.0°F 23.0°F 100% 30.27 in 10.0 miles Calm Calm - N/A   Overcast
11:56 AM 23.0°F 23.0°F 100% 30.27 in 10.0 miles Calm Calm - N/A   Overcast
11:58 AM 23.0°F 23.0°F 100% 30.38 in 10.0 miles Calm Calm - N/A   Overcast
12:23 PM 23.0°F 23.0°F 100% 30.27 in 10.0 miles Calm Calm - N/A   Overcast
12:39 PM 24.8°F 24.8°F 100% 30.27 in 10.0 miles Calm Calm - N/A   Overcast
12:53 PM 24.8°F 24.8°F 100% 30.27 in 10.0 miles Calm Calm - N/A   Overcast
12:57 PM 24.8°F 24.8°F 100% 30.27 in 10.0 miles Calm Calm - N/A   Overcast
12:58 PM 24.3°F 24.3°F 100% 30.38 in 10.0 miles Calm Calm - 0.00 in   Overcast
1:06 PM 24.8°F 24.8°F 100% 30.27 in 10.0 miles Calm Calm - N/A   Overcast
1:11 PM 24.8°F 24.8°F 100% 30.27 in 10.0 miles Calm Calm - N/A   Overcast
1:16 PM 24.8°F 24.8°F 100% 30.27 in 10.0 miles Calm Calm - N/A   Overcast
1:51 PM 24.8°F 24.8°F 100% 30.27 in 10.0 miles Calm Calm - N/A   Overcast
1:58 PM 24.4°F 24.4°F 100% 30.38 in 10.0 miles Calm Calm - 0.00 in   Overcast
2:08 PM 24.8°F 24.8°F 100% 30.27 in 10.0 miles Calm Calm - N/A   Overcast
2:21 PM 24.8°F 24.8°F 100% 30.28 in 10.0 miles Calm Calm - N/A   Overcast
2:31 PM 24.8°F 24.8°F 100% 30.28 in 10.0 miles Calm Calm - N/A   Overcast
2:53 PM 24.8°F 24.8°F 100% 30.28 in 10.0 miles Calm Calm - N/A   Overcast
2:58 PM 24.4°F 24.4°F 100% 30.38 in 10.0 miles Calm Calm - 0.00 in   Overcast
3:27 PM 24.8°F 24.8°F 100% 30.29 in 10.0 miles Calm Calm - N/A   Overcast
3:35 PM 23.0°F 23.0°F 100% 30.29 in 10.0 miles Calm Calm - N/A   Overcast
3:52 PM 23.0°F 23.0°F 100% 30.29 in 10.0 miles Calm Calm - N/A   Overcast
3:58 PM 22.6°F 22.6°F 100% 30.40 in 10.0 miles Calm Calm - 0.00 in   Overcast
4:42 PM 19.4°F 19.4°F 100% 30.30 in 10.0 miles Calm Calm - N/A Snow Light Snow
4:58 PM 20.3°F 20.3°F 100% 30.42 in 10.0 miles Calm Calm - 0.00 in Snow Light Snow
5:05 PM 19.4°F 19.4°F 100% 30.30 in 10.0 miles Calm Calm - N/A   Scattered Clouds
5:35 PM 19.4°F 19.4°F 100% 30.30 in 10.0 miles Calm Calm - N/A Snow Light Snow
5:55 PM 19.4°F 19.4°F 100% 30.30 in 10.0 miles Calm Calm - N/A   Clear
5:58 PM 19.0°F 18.9°F 99% 30.42 in 10.0 miles Calm Calm - 0.00 in   Clear
6:06 PM 17.6°F 17.6°F 100% 30.30 in 10.0 miles Calm Calm - N/A Snow Light Snow
6:25 PM 19.4°F 19.4°F 100% 30.30 in 10.0 miles NNW 5.8 mph - N/A   Clear
6:40 PM 19.4°F 19.4°F 100% 30.30 in 10.0 miles NW 4.6 mph - N/A Snow Light Snow
6:48 PM 17.6°F 17.6°F 100% 30.30 in 5.0 miles NW 4.6 mph - N/A   Clear
6:58 PM 18.5°F 18.5°F 100% 30.43 in 4.0 miles WNW 3.5 mph - 0.00 in   Partly Cloudy
7:58 PM 14.0°F 14.0°F 100% 30.45 in 10.0 miles WNW 5.8 mph - N/A   Clear
8:21 PM 14.0°F 14.0°F 100% 30.32 in 10.0 miles WNW 3.5 mph - N/A Snow Light Snow
8:31 PM 12.2°F 12.2°F 100% 30.32 in 10.0 miles West 2.3 mph - N/A   Clear
8:46 PM 12.2°F 12.2°F 100% 30.33 in 1.5 miles NW 4.6 mph - N/A   Clear
8:47 PM 12.2°F 12.2°F 100% 30.33 in 1.5 miles NW 4.6 mph - N/A Snow Light Snow
8:52 PM 14.0°F 14.0°F 100% 30.33 in 1.8 miles NW 5.8 mph - N/A Snow Light Snow
8:57 PM 15.8°F 15.8°F 100% 30.34 in 6.0 miles NW 5.8 mph - N/A Snow Light Snow
8:58 PM 15.6°F 15.6°F 100% 30.47 in 6.0 miles NW 5.8 mph - 0.00 in Snow Light Snow
9:13 PM 15.8°F 15.8°F 100% 30.34 in 8.0 miles WNW 4.6 mph - N/A   Clear
9:58 PM 10.8°F 10.8°F 100% 30.48 in 10.0 miles NW 2.3 mph - 0.00 in   Clear
10:58 PM 13.1°F 13.1°F 100% 30.51 in 10.0 miles West 3.5 mph - N/A   Clear
11:43 PM 10.4°F 10.4°F 100% 30.37 in 6.0 miles WSW 2.3 mph - N/A   Mostly Cloudy
11:58 PM 10.4°F 10.4°F 100% 30.51 in 4.0 miles WNW 4.6 mph - N/A   Overcast
Moon Phase
Dec. 31 Jan. 04 Jan. 11 Jan. 18 Jan. 26
Sunrise:07:38 AM (PST) Moon Rise:08:01 PM (PST)12/31
Sunset:04:09 PM (PST) Moon Set:09:08 AM (PST)12/31

Copyright © 2014 The Weather Underground, Inc.